EW2093 Weather Reports


time (UTC)temp
C
wind
direction
speed
KPH
gust
KPH
rain 1hr
cm
rain 24hr
cm
rain mn
cm
humidity
%
barometer
mb
20260510190535 13 238 3.2 16.1 0.00 0.89 0.18 62 1011.2
20260510190037 13 226 8.0 16.1 0.00 0.89 0.18 62 1011.0
20260510185519 13 7 6.4 19.3 0.10 0.89 0.18 64 1010.8
20260510185017 13 256 4.8 9.7 0.20 0.89 0.18 67 1010.7
20260510184520 13 284 4.8 9.7 0.20 0.89 0.18 68 1010.7
20260510184024 14 255 4.8 9.7 0.20 0.89 0.18 68 1010.6
20260510183526 14 272 4.8 14.5 0.20 0.89 0.18 67 1010.5
20260510183021 14 305 6.4 14.5 0.20 0.89 0.18 65 1010.5
20260510182523 15 273 8.0 16.1 0.20 0.89 0.18 65 1010.5
20260510182024 15 277 8.0 16.1 0.20 0.89 0.18 65 1010.3
20260510181532 15 297 6.4 20.9 0.20 0.89 0.18 67 1010.3
20260510181033 15 307 8.0 20.9 0.20 0.89 0.18 67 1010.2
20260510180537 15 335 12.9 24.1 0.20 0.89 0.18 68 1010.2
20260510180040 15 267 12.9 24.1 0.20 0.89 0.18 66 1010.2
20260510175554 16 278 8.0 16.1 0.00 0.71 0.15 61 1010.1
20260510175033 16 233 8.0 16.1 0.00 0.71 0.15 54 1009.9
20260510174535 16 288 6.4 16.1 0.00 0.71 0.15 54 1009.9
20260510174039 16 200 8.0 14.5 0.00 0.71 0.15 53 1009.8
20260510173521 17 261 6.4 14.5 0.00 0.71 0.15 53 1009.8
20260510173023 17 261 6.4 11.3 0.00 0.71 0.15 53 1009.7
20260510172532 17 7 8.0 11.3 0.00 0.71 0.15 55 1009.7
20260510172033 17 246 4.8 11.3 0.00 0.71 0.15 62 1009.7
20260510171535 17 204 4.8 11.3 0.00 0.71 0.15 62 1009.6
20260510171035 17 210 4.8 9.7 0.00 0.71 0.15 60 1009.5
20260510170517 17 180 3.2 9.7 0.00 0.71 0.15 62 1009.6
20260510170019 17 293 3.2 9.7 0.00 0.71 0.15 62 1009.6
20260510165541 16 165 4.8 11.3 0.00 0.71 0.15 61 1009.7
20260510165042 16 175 4.8 11.3 0.00 0.71 0.15 61 1009.7
20260510164518 17 153 3.2 11.3 0.00 0.71 0.15 62 1009.7
20260510164026 17 7 3.2 6.4 0.00 0.71 0.15 61 1009.7
20260510163548 17 160 1.6 6.4 0.00 0.71 0.15 61 1009.8
20260510163029 17 170 1.6 6.4 0.00 0.71 0.15 62 1009.9
20260510162551 16 170 3.2 6.4 0.00 0.71 0.15 63 1009.9
20260510162033 16 189 1.6 4.8 0.00 0.71 0.15 65 1010.1
20260510161535 16 228 1.6 4.8 0.00 0.71 0.15 65 1010.1
20260510161104 16 145 3.2 8.0 0.00 0.71 0.15 65 1010.0
20260510160539 16 195 4.8 9.7 0.00 0.71 0.15 62 1010.0
20260510160045 16 7 3.2 9.7 0.00 0.71 0.15 63 1009.9
20260510155546 16 197 4.8 11.3 0.00 0.71 0.15 62 1010.0
20260510155027 16 216 6.4 11.3 0.00 0.71 0.15 60 1010.0
20260510154528 16 147 6.4 14.5 0.00 0.71 0.15 59 1010.0
20260510154030 17 241 1.6 9.7 0.00 0.71 0.15 61 1009.9
20260510153531 16 239 1.6 9.7 0.00 0.71 0.15 63 1010.0
20260510153031 16 249 4.8 9.7 0.00 0.71 0.15 63 1010.0
20260510152533 16 181 3.2 9.7 0.00 0.71 0.15 64 1010.0
20260510152034 16 221 4.8 9.7 0.00 0.71 0.15 62 1010.0
20260510151536 17 199 4.8 11.3 0.00 0.71 0.15 64 1010.1
20260510151020 16 222 3.2 9.7 0.00 0.71 0.15 67 1010.2
20260510150541 16 203 4.8 11.3 0.00 0.71 0.15 67 1010.2
20260510150043 16 221 4.8 11.3 0.00 0.71 0.15 69 1010.3
20260510145518 15 248 6.4 17.7 0.00 0.71 0.15 69 1010.3
20260510145019 15 211 8.0 17.7 0.00 0.71 0.15 69 1010.6
20260510144521 15 187 6.4 16.1 0.00 0.71 0.15 71 1010.8
20260510144023 15 228 8.0 16.1 0.00 0.71 0.15 70 1010.9
20260510143526 15 243 6.4 16.1 0.00 0.71 0.15 74 1010.8
20260510143047 15 7 8.0 16.1 0.00 0.71 0.15 73 1010.7
20260510142529 14 239 3.2 8.0 0.00 0.71 0.15 76 1010.4
20260510142039 14 7 3.2 9.7 0.00 0.71 0.15 76 1010.2
20260510141559 14 7 3.2 14.5 0.00 0.71 0.15 76 1010.2
20260510141040 14 204 8.0 14.5 0.00 0.71 0.15 73 1011.2
20260510140540 14 214 8.0 16.1 0.00 0.71 0.15 73 1011.4
20260510140020 14 187 4.8 14.5 0.00 0.71 0.15 76 1011.5
20260510135543 14 225 6.4 14.5 0.00 0.71 0.15 76 1011.4
20260510135043 13 250 6.4 14.5 0.10 0.71 0.15 78 1011.4
20260510134536 13 201 6.4 12.9 0.10 0.71 0.15 80 1011.4
20260510134046 13 7 6.4 19.3 0.20 0.71 0.15 83 1011.4
20260510133544 12 260 6.4 19.3 0.30 0.71 0.15 82 1011.5
20260510133018 12 252 6.4 14.5 0.71 0.71 0.15 85 1011.6
20260510132521 12 220 6.4 17.7 0.71 0.71 0.15 84 1011.9
20260510132022 12 197 8.0 17.7 0.71 0.71 0.15 85 1011.8
20260510131524 12 251 8.0 19.3 0.71 0.71 0.15 85 1012.0
20260510131028 11 274 8.0 24.1 0.71 0.71 0.15 84 1012.0
20260510130529 11 252 11.3 24.1 0.71 0.71 0.15 84 1011.9
20260510130030 12 259 9.7 20.9 0.71 0.71 0.15 83 1012.0
20260510125550 12 218 8.0 17.7 0.71 0.71 0.15 83 1012.0
20260510125029 12 7 9.7 24.1 0.61 0.61 0.13 81 1011.9
20260510124523 13 7 11.3 27.4 0.61 0.61 0.13 78 1011.7
20260510124026 14 7 9.7 27.4 0.51 0.51 0.10 70 1011.4
20260510123529 16 255 9.7 27.4 0.30 0.30 0.05 65 1011.2
20260510123044 17 207 8.0 19.3 0.00 0.00 0.00 57 1010.7
20260510122524 18 141 4.8 8.0 0.00 0.00 0.00 55 1010.1
20260510122027 18 225 1.6 8.0 0.00 0.00 0.00 53 1010.0
20260510121527 18 253 3.2 9.7 0.00 0.00 0.00 52 1010.1
20260510121028 18 162 3.2 9.7 0.00 0.00 0.00 52 1010.0
20260510120531 18 219 1.6 6.4 0.00 0.00 0.00 50 1010.0
20260510120029 19 258 4.8 6.4 0.00 0.00 0.00 48 1010.1
20260510115533 19 212 4.8 6.4 0.00 0.00 0.00 46 1010.2
20260510115034 19 206 1.6 8.0 0.00 0.00 0.00 48 1010.3
20260510114557 20 205 3.2 12.9 0.00 0.00 0.00 47 1010.3
20260510114019 20 258 3.2 12.9 0.00 0.00 0.00 49 1010.3
20260510113521 20 7 4.8 9.7 0.00 0.00 0.00 49 1010.4
20260510113024 20 264 3.2 11.3 0.00 0.00 0.00 47 1010.3
20260510112527 20 286 3.2 12.9 0.00 0.00 0.00 47 1010.4
20260510112028 20 7 4.8 9.7 0.00 0.00 0.00 47 1010.4
20260510111531 20 252 3.2 8.0 0.00 0.00 0.00 48 1010.4
20260510111034 20 220 3.2 9.7 0.00 0.00 0.00 46 1010.6
20260510110526 20 271 3.2 8.0 0.00 0.00 0.00 50 1010.6
20260510110035 20 277 4.8 11.3 0.00 0.00 0.00 49 1010.7
20260510105551 19 236 6.4 11.3 0.00 0.00 0.00 48 1010.8
20260510105030 19 162 3.2 11.3 0.00 0.00 0.00 54 1010.9
20260510104531 18 264 1.6 11.3 0.00 0.00 0.00 54 1011.0
20260510104033 18 262 4.8 11.3 0.00 0.00 0.00 53 1011.1
20260510103534 18 287 3.2 11.3 0.00 0.00 0.00 53 1011.2
20260510103037 18 333 4.8 12.9 0.00 0.00 0.00 55 1011.3
20260510102519 18 241 4.8 17.7 0.00 0.00 0.00 54 1011.3
20260510102021 17 218 3.2 17.7 0.00 0.00 0.00 55 1011.4
20260510101544 17 235 6.4 22.5 0.00 0.00 0.00 57 1011.4
20260510101027 17 206 11.3 22.5 0.00 0.00 0.00 53 1011.5
20260510100528 17 7 4.8 8.0 0.00 0.00 0.00 58 1011.4
20260510100030 17 245 3.2 14.5 0.00 0.00 0.00 58 1011.4
20260510095553 16 207 8.0 14.5 0.00 0.00 0.00 57 1011.4
20260510095033 16 7 4.8 12.9 0.00 0.00 0.00 59 1011.6
20260510094534 16 233 6.4 14.5 0.00 0.00 0.00 58 1011.6
20260510094036 16 225 4.8 14.5 0.00 0.00 0.00 59 1011.7
20260510093519 16 185 6.4 12.9 0.00 0.00 0.00 57 1011.7
20260510093021 17 267 6.4 11.3 0.00 0.00 0.00 58 1011.8
20260510092523 17 276 3.2 6.4 0.00 0.00 0.00 61 1011.8
20260510092026 16 115 1.6 6.4 0.00 0.00 0.00 60 1011.8
20260510091527 16 156 3.2 12.9 0.00 0.00 0.00 58 1011.9
20260510091027 17 216 6.4 12.9 0.00 0.00 0.00 58 1011.9
20260510090529 17 224 4.8 12.9 0.00 0.00 0.00 61 1011.7
20260510090031 16 182 6.4 12.9 0.00 0.00 0.00 60 1011.7
20260510085551 16 272 4.8 16.1 0.00 0.00 0.00 62 1011.7
20260510085053 16 230 6.4 16.1 0.00 0.00 0.00 61 1011.7
20260510084534 16 274 9.7 14.5 0.00 0.00 0.00 60 1011.7
20260510084033 16 276 4.8 17.7 0.00 0.00 0.00 63 1011.8
20260510083536 15 214 4.8 17.7 0.00 0.00 0.00 63 1011.8
20260510083020 15 240 9.7 19.3 0.00 0.00 0.00 60 1011.8
20260510082542 15 7 4.8 22.5 0.00 0.00 0.00 63 1011.9
20260510082023 15 7 9.7 22.5 0.00 0.00 0.00 62 1011.9
20260510081544 15 209 8.0 20.9 0.00 0.00 0.00 62 1011.8
20260510081052 15 220 8.0 22.5 0.00 0.00 0.00 64 1011.9
20260510080534 15 7 9.7 22.5 0.00 0.00 0.00 62 1011.8
20260510080035 15 7 8.0 19.3 0.00 0.00 0.00 64 1011.8
20260510075526 15 7 11.3 17.7 0.00 0.00 0.00 63 1011.8
20260510075029 15 162 8.0 19.3 0.00 0.00 0.00 65 1011.7
20260510074531 14 202 4.8 19.3 0.00 0.00 0.00 67 1011.7
20260510074032 14 245 8.0 14.5 0.00 0.00 0.00 65 1011.7
20260510073536 14 268 6.4 16.1 0.00 0.00 0.00 66 1011.7
20260510073036 14 7 6.4 17.7 0.00 0.00 0.00 66 1011.8
20260510072538 15 209 8.0 17.7 0.00 0.00 0.00 64 1011.7
20260510072019 15 162 8.0 16.1 0.00 0.00 0.00 64 1011.6
20260510071520 15 226 4.8 11.3 0.00 0.00 0.00 65 1011.4
20260510071019 15 193 3.2 9.7 0.00 0.00 0.00 69 1011.4
20260510070521 15 12 3.2 6.4 0.00 0.00 0.00 70 1011.3
20260510070022 15 110 1.6 4.8 0.00 0.00 0.00 71 1011.3
20260510065523 14 121 1.6 4.8 0.00 0.00 0.00 73 1011.3
20260510065053 13 157 1.6 4.8 0.00 0.00 0.00 74 1011.2
20260510064533 13 157 0.0 4.8 0.00 0.00 0.00 75 1011.2
20260510064054 13 157 3.2 8.0 0.00 0.00 0.00 76 1011.2
20260510063550 13 93 4.8 9.7 0.00 0.00 0.00 76 1011.1
20260510063031 12 94 3.2 6.4 0.00 0.00 0.00 77 1011.1
20260510062518 12 93 1.6 8.0 0.00 0.00 0.00 79 1011.1
20260510062020 12 91 3.2 9.7 0.00 0.00 0.00 80 1011.0
20260510061521 11 94 3.2 9.7 0.00 0.00 0.00 82 1010.9
20260510061019 11 83 3.2 8.0 0.00 0.00 0.00 82 1010.9
20260510060520 11 64 4.8 8.0 0.00 0.00 0.00 82 1010.9
20260510060047 11 73 4.8 8.0 0.00 0.00 0.00 81 1010.9
20260510055528 11 68 4.8 8.0 0.00 0.00 0.00 81 1010.9
20260510055029 11 58 3.2 6.4 0.00 0.00 0.00 81 1010.9
20260510054531 11 59 3.2 6.4 0.00 0.00 0.00 82 1010.9
20260510054031 10 127 1.6 4.8 0.00 0.00 0.00 83 1010.9
20260510053531 10 129 1.6 6.4 0.00 0.00 0.00 84 1010.7
20260510053029 10 149 1.6 3.2 0.00 0.00 0.00 85 1010.7
20260510052533 9 164 1.6 3.2 0.00 0.00 0.00 85 1010.7
20260510052035 9 114 0.0 3.2 0.00 0.00 0.00 85 1010.6
20260510051535 8 114 1.6 4.8 0.00 0.00 0.00 86 1010.5
20260510051036 8 113 3.2 4.8 0.00 0.00 0.00 85 1010.5
20260510050537 8 103 3.2 4.8 0.00 0.00 0.00 84 1010.6
20260510050038 9 105 1.6 4.8 0.00 0.00 0.00 84 1010.6
20260510045536 9 105 3.2 8.0 0.00 0.00 0.00 83 1010.5
20260510045037 10 105 4.8 8.0 0.00 0.00 0.00 82 1010.6
20260510044518 10 243 3.2 4.8 0.00 0.00 0.00 82 1010.6
20260510044021 10 244 3.2 4.8 0.00 0.00 0.00 83 1010.8
20260510043522 10 244 1.6 4.8 0.00 0.00 0.00 83 1010.8
20260510043043 10 245 1.6 4.8 0.00 0.00 0.00 83 1010.8
20260510042523 11 245 1.6 4.8 0.00 0.00 0.00 83 1010.8
20260510042025 11 245 1.6 4.8 0.00 0.00 0.00 83 1010.8
20260510041527 11 83 1.6 3.2 0.00 0.00 0.00 84 1010.7
20260510041029 11 83 1.6 4.8 0.00 0.00 0.00 83 1010.8
20260510040530 11 84 1.6 4.8 0.00 0.00 0.00 83 1010.8
20260510040032 11 166 1.6 3.2 0.00 0.00 0.00 83 1010.8
20260510035535 11 166 1.6 1.6 0.00 0.00 0.00 83 1010.7
20260510035037 11 166 1.6 1.6 0.00 0.00 0.00 83 1010.7
20260510034520 11 166 0.0 3.2 0.00 0.00 0.00 83 1010.7
20260510034023 11 166 1.6 3.2 0.00 0.00 0.00 82 1010.7
20260510033526 11 167 1.6 4.8 0.00 0.00 0.00 82 1010.7
20260510033027 11 168 3.2 8.0 0.00 0.00 0.00 82 1010.7
20260510032531 11 178 3.2 8.0 0.00 0.00 0.00 82 1010.7
20260510032032 11 185 1.6 8.0 0.00 0.00 0.00 82 1010.7
20260510031555 11 180 3.2 9.7 0.00 0.00 0.00 82 1010.7
20260510031055 12 191 3.2 4.8 0.00 0.00 0.00 81 1010.7
20260510030536 12 224 1.6 8.0 0.00 0.00 0.00 81 1010.8
20260510030037 12 7 3.2 8.0 0.00 0.00 0.00 82 1010.6
20260510025519 12 139 1.6 6.4 0.00 0.00 0.00 82 1010.6
20260510025022 12 230 1.6 6.4 0.00 0.00 0.00 82 1010.7
20260510024525 12 218 3.2 4.8 0.00 0.00 0.00 83 1010.6
20260510024019 12 217 1.6 4.8 0.00 0.00 0.00 83 1010.6
20260510023526 12 217 1.6 6.4 0.00 0.00 0.00 83 1010.5
20260510023026 12 206 1.6 6.4 0.00 0.00 0.00 83 1010.6
20260510022548 12 237 1.6 8.0 0.00 0.00 0.00 83 1010.6
20260510022028 12 231 3.2 9.7 0.00 0.00 0.00 83 1010.6
20260510021532 12 250 3.2 11.3 0.00 0.00 0.00 83 1010.6
20260510021033 12 257 4.8 11.3 0.00 0.00 0.00 83 1010.6
20260510020536 12 249 3.2 6.4 0.00 0.00 0.00 83 1010.5
20260510020038 12 255 1.6 4.8 0.00 0.00 0.00 83 1010.4
20260510015520 12 255 1.6 4.8 0.00 0.00 0.00 84 1010.3
20260510015043 12 260 3.2 4.8 0.00 0.00 0.00 84 1010.3
20260510014519 12 294 1.6 4.8 0.00 0.00 0.00 84 1010.2
20260510014022 12 24 1.6 3.2 0.00 0.00 0.00 85 1010.2
20260510013552 12 24 1.6 3.2 0.00 0.00 0.00 86 1010.1
20260510013031 12 24 1.6 4.8 0.00 0.00 0.00 86 1010.2
20260510012533 12 25 1.6 4.8 0.00 0.00 0.00 86 1010.1
20260510012035 12 102 0.0 1.6 0.00 0.00 0.00 86 1010.3
20260510011537 12 102 0.0 3.2 0.00 0.00 0.00 86 1010.4
20260510011038 12 102 0.0 4.8 0.00 0.00 0.00 86 1010.4
20260510010520 12 103 3.2 9.7 0.00 0.00 0.00 86 1010.5
20260510010039 12 105 4.8 9.7 0.00 0.00 0.00 86 1010.6
20260510005542 12 110 4.8 8.0 0.00 0.00 0.00 86 1010.6
20260510005046 12 87 4.8 8.0 0.00 0.00 0.00 85 1010.6
20260510004525 12 91 3.2 9.7 0.00 0.00 0.00 84 1010.7
20260510004048 12 103 3.2 8.0 0.00 0.00 0.00 84 1010.8
20260510003529 13 74 3.2 8.0 0.00 0.00 0.00 83 1010.9
20260510003030 13 73 4.8 8.0 0.00 0.00 0.00 83 1010.9
20260510002553 13 93 4.8 6.4 0.00 0.00 0.00 82 1010.8
20260510002033 13 135 3.2 6.4 0.00 0.00 0.00 82 1010.9
20260510001535 13 206 3.2 6.4 0.00 0.00 0.00 81 1011.0
20260510001037 13 156 1.6 11.3 0.00 0.00 0.00 81 1011.0
20260510000520 13 182 6.4 14.5 0.00 0.00 0.00 82 1010.9
20260510000020 13 241 6.4 14.5 0.00 0.00 0.00 82 1010.8
20260509235522 13 224 3.2 6.4 0.00 0.00 0.00 82 1010.9
20260509235023 13 223 3.2 6.4 0.00 0.00 0.00 83 1010.9
20260509234524 13 240 3.2 14.5 0.00 0.00 0.00 83 1010.9
20260509234025 13 292 4.8 14.5 0.00 0.00 0.00 83 1010.7
20260509233528 13 122 6.4 19.3 0.00 0.00 0.00 83 1010.5
20260509233020 13 105 8.0 19.3 0.00 0.00 0.00 83 1010.2
20260509232522 13 126 8.0 17.7 0.00 0.00 0.00 83 1010.1
20260509232051 13 105 8.0 17.7 0.00 0.00 0.00 83 1010.0
20260509231531 13 114 9.7 17.7 0.00 0.00 0.00 83 1010.1
20260509231032 13 101 8.0 19.3 0.00 0.00 0.00 82 1010.2
20260509230552 13 124 8.0 25.7 0.00 0.00 0.00 82 1010.3
20260509230024 13 96 11.3 24.1 0.00 0.00 0.00 82 1010.3
20260509225542 13 121 9.7 20.9 0.00 0.00 0.00 81 1010.3
20260509225021 13 105 9.7 19.3 0.00 0.00 0.00 81 1010.2
20260509224523 13 139 9.7 22.5 0.00 0.00 0.00 81 1010.3
20260509224021 13 143 12.9 24.1 0.00 0.00 0.00 82 1010.3
20260509223520 13 82 8.0 20.9 0.00 0.00 0.00 82 1010.2
20260509223024 13 124 11.3 22.5 0.00 0.00 0.00 82 1010.2
20260509222525 13 147 12.9 27.4 0.00 0.00 0.00 82 1010.2
20260509222025 13 90 12.9 33.8 0.00 0.00 0.00 82 1010.2
20260509221525 13 143 12.9 33.8 0.00 0.00 0.00 82 1010.2
20260509221027 13 147 11.3 29.0 0.00 0.00 0.00 82 1010.2
20260509220529 13 139 12.9 27.4 0.00 0.00 0.00 82 1010.2
20260509220029 13 130 14.5 24.1 0.00 0.00 0.00 82 1010.1
20260509215531 13 174 9.7 37.0 0.00 0.00 0.00 82 1010.1
20260509215032 13 108 11.3 37.0 0.00 0.00 0.00 81 1010.3
20260509214534 13 139 12.9 32.2 0.00 0.00 0.00 81 1010.2
20260509214033 13 115 12.9 24.1 0.00 0.00 0.00 81 1010.3
20260509213537 13 7 11.3 27.4 0.00 0.00 0.00 81 1010.1
20260509213019 13 7 9.7 25.7 0.00 0.00 0.00 80 1010.2
20260509212541 13 166 11.3 29.0 0.00 0.00 0.00 81 1010.0
20260509212019 13 180 12.9 29.0 0.00 0.00 0.00 81 1010.1
20260509211520 13 116 12.9 24.1 0.00 0.00 0.00 83 1010.1
20260509211022 13 148 12.9 29.0 0.00 0.00 0.00 84 1010.1
20260509210523 13 160 14.5 29.0 0.00 0.00 0.00 85 1010.1
20260509210023 13 114 9.7 20.9 0.00 0.00 0.00 85 1010.2
20260509205543 13 116 9.7 25.7 0.00 0.00 0.00 84 1010.3
20260509205051 13 113 14.5 27.4 0.00 0.00 0.00 84 1010.3
20260509204552 13 7 14.5 29.0 0.00 0.00 0.00 84 1010.2
20260509204031 13 101 17.7 29.0 0.00 0.00 0.00 83 1010.2
20260509203534 13 68 17.7 35.4 0.00 0.00 0.00 83 1010.2
20260509203055 13 64 17.7 35.4 0.00 0.00 0.00 82 1010.2
20260509202604 13 105 19.3 35.4 0.00 0.00 0.00 81 1010.1
20260509202044 13 101 20.9 35.4 0.00 0.00 0.00 81 1010.1
20260509201519 13 98 22.5 33.8 0.00 0.00 0.00 81 1010.2
20260509201022 13 108 20.9 33.8 0.00 0.00 0.00 80 1010.2
20260509200523 13 109 19.3 30.6 0.00 0.00 0.00 80 1010.3
20260509200023 13 105 20.9 33.8 0.00 0.00 0.00 80 1010.1
20260509195519 13 101 17.7 25.7 0.00 0.00 0.00 80 1010.1
20260509195048 13 93 16.1 27.4 0.00 0.00 0.00 80 1010.0
20260509194549 13 7 14.5 25.7 0.00 0.00 0.00 79 1010.0
20260509194030 13 7 16.1 27.4 0.00 0.00 0.00 79 1010.0
20260509193532 13 97 12.9 24.1 0.00 0.00 0.00 81 1009.9
20260509193054 14 99 9.7 17.7 0.00 0.00 0.00 80 1009.9
20260509192533 14 87 8.0 20.9 0.00 0.00 0.00 80 1009.8
20260509192034 15 101 8.0 22.5 0.00 0.00 0.00 80 1009.8
20260509191541 15 112 12.9 22.5 0.00 0.00 0.00 81 1009.6
20260509191044 15 100 11.3 19.3 0.00 0.00 0.00 80 1009.7